SOMP 2b
1 47445U 21006AJ 23124.72322435 .00014192 00000-0 61621-3 0 9999
2 47445 97.3850 181.8052 0008941 231.4303 128.6133 15.22388771126008
IDEASSat
1 47458U 21006AX 23124.42583644 .00012471 00000-0 55029-3 0 9994
2 47458 97.3948 182.2741 0008237 230.4398 129.6111 15.21875072125944
CubeSX-Sirius-HSE
1 47951U 21022V 23124.56838492 .00009389 00000-0 53870-3 0 9995
2 47951 97.5016 22.6514 0020821 122.2380 286.0996 15.12583285116432
CubeSX-HSE
1 47952U 21022W 23124.54999177 .00008837 00000-0 50643-3 0 9994
2 47952 97.5025 22.6768 0020677 121.7796 322.1040 15.12644761116437
KSU-Cubesat
1 47954U 21022Y 23124.67610568 .00010997 00000-0 61612-3 0 9992
2 47954 97.5023 23.1196 0020200 120.3955 239.9277 15.13403699116196
GRBAlpha
1 47959U 21022AD 23124.79555922 .00009163 00000-0 52388-3 0 9995
2 47959 97.5019 22.9933 0020491 121.0634 279.7471 15.12724434115296
Orbicraft-Zorkiy
1 47960U 21022AE 23124.77974660 .00010656 00000-0 59828-3 0 9994
2 47960 97.5047 23.3453 0020197 120.2986 325.0333 15.13338192115997
STECCO
1 47962U 21022AG 23124.80434191 .00017825 00000-0 86210-3 0 9990
2 47962 97.5015 25.3953 0015387 110.2142 290.4415 15.18556656115458
DO-111
1 47963U 21022AH 23124.46449863 .00140470 00000-0 27773-2 0 9996
2 47963 97.5022 31.0878 0014022 98.4688 261.8151 15.46493577115805
MO-110
1 47964U 21022AJ 23124.27592954 .00018455 00000-0 87356-3 0 9997
2 47964 97.5036 25.4094 0017613 108.0748 252.2407 15.19261980115407
FEES
1 48082U 21022AL 23124.26271511 .00030100 00000-0 12242-2 0 9993
2 48082 97.5033 26.2648 0014001 102.8965 257.3837 15.24390158115163
TUBIN
1 48900U 21059X 23124.83993865 .00009253 00000-0 44859-3 0 9993
2 48900 97.5919 258.2045 0010483 76.3904 75.8922 15.18696675102598
IT-SPINS
1 49017U 21013G 23124.51550197 .00033758 00000-0 84502-3 0 9991
2 49017 51.5925 292.4395 0007567 173.8094 186.2984 15.39746273102975
LEDSAT
1 49069U 21073D 23124.16293260 .00007467 00000-0 41943-3 0 9990
2 49069 97.4845 195.8030 0022919 271.7026 88.1580 15.13382017 94241
CUTE
1 49263U 21088D 23124.16919646 .00008453 00000-0 55357-3 0 9995
2 49263 97.5475 190.7482 0019399 58.4725 301.8394 15.07822485 87652
TeikyoSat 4
1 49396U 21102B 23124.56673370 .00002836 00000-0 22028-3 0 9992
2 49396 97.5151 177.8948 0014231 234.2624 125.7278 15.02040493 81222
Z-Sat
1 49399U 21102E 23124.52728813 .00002729 00000-0 19813-3 0 9993
2 49399 97.4883 178.9647 0021134 214.1796 145.8071 15.04531787 81329
KOSEN 1
1 49402U 21102H 23124.38525624 .00003844 00000-0 26540-3 0 9991
2 49402 97.4806 179.2646 0020627 203.8028 156.2247 15.06182780 81363
HO-113
1 50466U 21131B 23124.56947957 .00000688 00000-0 23813-3 0 9995
2 50466 98.5515 206.2516 0003036 266.7310 93.3530 14.38861066 71087
Tevel-3
1 50988U 22002E 23124.54404501 .00018956 00000-0 79655-3 0 9995
2 50988 97.4369 191.8536 0008189 39.5493 67.5486 15.23444326 72113
Tevel-8
1 50989U 22002F 23124.75996039 .00018818 00000-0 79205-3 0 9999
2 50989 97.4379 192.1217 0008301 37.6021 80.2454 15.23389080 72142
Tevel-5
1 50998U 22002Q 23124.57740699 .00019703 00000-0 80911-3 0 9998
2 50998 97.4359 192.2216 0009285 32.6758 76.9902 15.24205751 72147
Tevel-6
1 50999U 22002R 23124.57593278 .00019600 00000-0 80486-3 0 9991
2 50999 97.4359 192.2159 0009142 32.9564 76.7150 15.24207681 72141
Tevel-1
1 51013U 22002AF 23124.55262309 .00018970 00000-0 79815-3 0 9998
2 51013 97.4368 191.8113 0008017 40.3550 66.9756 15.23402819 72111
Grizu-263a
1 51025U 22002AT 23124.16063130 .00062368 00000-0 16131-2 0 9990
2 51025 97.4511 195.7810 0005661 28.7126 331.4430 15.38854602 72275
NO-116
1 51031U 22002AZ 23124.46065965 .00031534 00000-0 10946-2 0 9997
2 51031 97.4485 194.1924 0009038 31.6347 328.5434 15.29680820 72215
IRIS-A
1 51044U 22002BN 23123.93701640 .00009226 00000-0 44929-3 0 9991
2 51044 97.4377 190.0904 0008993 44.1492 316.0459 15.18549003 71944
Tevel-7
1 51062U 22002CG 23124.49997711 .00019051 00000-0 80171-3 0 9995
2 51062 97.4377 191.8388 0008355 37.8566 87.1659 15.23393837 72107
Tevel-4
1 51063U 22002CH 23124.50458668 .00018952 00000-0 79864-3 0 9997
2 51063 97.4381 191.8313 0008190 38.4471 86.0966 15.23349336 72104
Tevel-2
1 51069U 22002CP 23124.48343096 .00019042 00000-0 80020-3 0 9995
2 51069 97.4366 191.7674 0008146 38.6709 86.0668 15.23442555 72105
DELFI-PQ
1 51074U 22002CU 23124.76166079 .00038076 00000-0 12049-2 0 9999
2 51074 97.4619 196.5865 0009817 58.9109 301.3095 15.32620629 72345
SO-115
1 51080U 22002DA 23123.64960121 .00019462 00000-0 73975-3 0 9996
2 51080 97.4640 194.3332 0011507 65.1299 295.1135 15.26772911 72092
SO-114
1 51081U 22002DB 23124.16622244 .00021176 00000-0 80050-3 0 9993
2 51081 97.4628 194.8172 0011631 62.4324 297.8095 15.26934684 72173
OreSat0
1 52017U 22026K 23124.58075409 .00015854 00000-0 66413-3 0 9993
2 52017 97.5096 126.8894 0021140 232.5673 127.3640 15.23416131 62904
Planetum 1
1 52738U 22057G 23124.82442858 .00014418 00000-0 68874-3 0 9998
2 52738 97.5329 240.8528 0008310 136.7485 223.4403 15.19108628 52070
Foresail-1
1 52766U 22057AL 23124.87041237 .00010305 00000-0 49989-3 0 9997
2 52766 97.5438 241.7708 0013726 120.1003 357.2854 15.18607563 52103
SNUGLITE 2
1 52899U 22065F 23124.40351946 .00001274 00000-0 27972-3 0 9996
2 52899 98.0627 270.4812 0007814 3.3305 356.7945 14.59190147 44474
CTIM
1 52950U 22074G 23124.57371915 .00042485 00000-0 10584-2 0 9999
2 52950 44.9999 242.3983 0013893 315.6119 44.3644 15.39518543 46872
IO-117
1 53106U 22080B 23121.98189554 -.00000003 00000-0 00000-0 0 9999
2 53106 70.1683 335.7822 0008237 195.3909 164.6501 6.42557335 18785
AstroBioCubeSat
1 53107U 22080C 22364.14200119 -.00000003 00000-0 00000-0 0 9997
2 53107 70.1674 18.5562 0013489 216.1674 143.8074 6.42110599 10793
SelfieSat
1 53951U 22057BC 23124.30761925 .00017020 00000-0 78131-3 0 9997
2 53951 97.5377 240.8449 0010363 133.7079 226.5016 15.20431614 52014
FO-118
1 54684U 22167C 23124.59919556 .00012942 00000-0 73366-3 0 9992
2 54684 97.5551 262.5246 0015022 124.6625 7.9221 15.13022699 22085
KILICSAT
1 56181U 23054D 23124.66225317 .00012473 00000-0 55462-3 0 9991
2 56181 97.4100 20.2038 0009832 176.2360 183.8951 15.21601208 3550
SSS-2B
1 56184U 23054G 23124.52943378 .00012998 00000-0 57565-3 0 9991
2 56184 97.4162 20.0921 0011140 178.3444 181.7831 15.21714420 3534
CIRBE
1 56188U 23054L 23124.52622123 .00015277 00000-0 67002-3 0 9997
2 56188 97.4114 20.0847 0010325 170.2808 189.8630 15.22019031 3534
INSPIRE-Sat 7
1 56211U 23054AK 23124.57424342 .00016259 00000-0 68203-3 0 9997
2 56211 97.4142 20.1804 0015839 158.1020 202.0898 15.23451510 3540
RoseyCubesat 1
1 56212U 23054AL 23124.50696585 .00017193 00000-0 71773-3 0 9995
2 56212 97.4148 20.1193 0016292 157.9029 202.2914 15.23595034 3538
ARKSAT 1
1 56311U 98067VC 23124.85444628 .00048426 00000-0 78817-3 0 9997
2 56311 51.6385 183.1817 0007937 309.2048 50.8237 15.52137299 1625
AuroraSat
1 56312U 98067VD 23124.85452122 .00049650 00000-0 80779-3 0 9996
2 56312 51.6383 183.1825 0007853 308.9007 51.1282 15.52137801 1657
